Home   Weather   Township of Fairfield   Past weeks
Flag for USA

Past Weather in Township of Fairfield, Ohio, USA — Yesterday and Last 2 Weeks

Now
58 °F

Clear.


Feels Like: 58 °F
Forecast: 79 / 60 °F
Wind: No wind

Location: Fairfield County Airport
Current Time: Sep 27, 2020 at 12:01:45 am
Latest Report: Sep 26, 2020 at 10:53 pm
Visibility: 10 mi
Pressure29.93 "Hg
Humidity: 97%
Dew Point: 57 °F
Location of Township of FairfieldLocation

Past Weather in Township of Fairfield — Graph

°F

Township of Fairfield Temperature Yesterday

Maximum temperature yesterday: 82 °F (at 3:53 pm)
Minimum temperature yesterday: 53 °F (at 2:59 am)
Average temperature yesterday: 67 °F

High & Low Weather Summary for the Past Weeks

 TemperatureHumidityPressure
High86 °F (Sep 12, 2:53 pm)97% (Sep 12, 3:53 am)30.51 "Hg (Sep 12, 3:53 am)
Low35 °F (Sep 20, 5:53 am)26% (Sep 20, 1:53 pm)29.91 "Hg (Sep 26, 4:53 pm)
Average60 °F76%30.14 "Hg
* Reported Sep 11 9:53 pm — Sep 26 9:53 pm, Township of Fairfield. Weather by CustomWeather, © 2020

Note: Actual official high and low records may vary slightly from our data, if they occured in-between our weather recording intervals... More about our weather records

Township of Fairfield Weather History for the Previous 24 Hours

Scroll right to see more
 ConditionsComfort  
Time TempWeatherWind HumidityBarometerVisibility
9:53 pm
Sat, Sep 26
62 °FClear.No wind90%29.93 "Hg10 mi
8:53 pm68 °FClear.3 mph76%29.92 "Hg10 mi
7:53 pm71 °FClear.5 mph68%29.92 "Hg10 mi
6:53 pm74 °FSunny.5 mph62%29.92 "Hg10 mi
5:53 pm77 °FSunny.8 mph54%29.92 "Hg10 mi
4:53 pm82 °FPartly sunny.10 mph48%29.91 "Hg10 mi
3:53 pm82 °FScattered clouds.8 mph46%29.93 "Hg10 mi
2:53 pm80 °FPartly sunny.8 mph49%29.93 "Hg10 mi
1:53 pm79 °FPassing clouds.7 mph52%29.96 "Hg10 mi
12:53 pm80 °FBroken clouds.9 mph52%29.98 "Hg10 mi
11:53 am75 °FPassing clouds.7 mph64%30.00 "Hg10 mi
10:53 am74 °FSunny.7 mph69%30.02 "Hg10 mi
9:53 am68 °FPartly sunny.No wind78%30.02 "Hg10 mi
8:53 am64 °FOvercast.No wind84%30.02 "Hg10 mi
7:53 am62 °FOvercast.No wind90%30.02 "Hg9 mi
6:53 am61 °FOvercast.No wind90%30.00 "Hg10 mi
5:53 am61 °FOvercast.3 mph90%29.98 "Hg10 mi
4:53 am57 °FOvercast.No wind93%29.97 "Hg10 mi
3:53 am55 °FPassing clouds.No wind93%29.98 "Hg7 mi
2:59 am53 °FFog.No wind96%29.99 "Hg4 mi
2:18 am54 °FFog.No wind93%29.99 "Hg1 mi
2:12 am54 °FFog.3 mph97%29.99 "Hg2 mi
1:53 am54 °FFog.No wind93%29.98 "Hg5 mi
12:53 am56 °FFog.No wind93%29.98 "Hg6 mi
Weather by CustomWeather, © 2020

See weather overview